TimeMDT,TemperatureF,Dew PointF,Humidity,Sea Level PressureIn,VisibilityMPH,Wind Direction,Wind SpeedMPH,Gust SpeedMPH,PrecipitationIn,Events,Conditions,WindDirDegrees,DateUTC
12:55 AM,30.0,27.0,88,30.09,10.0,North,6.9,-,N/A,,Clear,10,2012-11-01 06:55:00
1:55 AM,30.9,27.0,85,30.08,10.0,Calm,Calm,-,N/A,,Clear,0,2012-11-01 07:55:00
2:55 AM,28.9,26.1,89,30.06,10.0,North,4.6,-,N/A,,Clear,350,2012-11-01 08:55:00
3:55 AM,28.0,25.0,88,30.06,10.0,North,5.8,-,N/A,,Clear,350,2012-11-01 09:55:00
4:55 AM,28.0,26.1,92,30.05,10.0,NNW,6.9,-,N/A,,Clear,340,2012-11-01 10:55:00
5:55 AM,27.0,25.0,92,30.09,10.0,North,5.8,-,N/A,,Clear,360,2012-11-01 11:55:00
6:55 AM,27.0,25.0,92,30.11,10.0,NNW,3.5,-,N/A,,Clear,330,2012-11-01 12:55:00
7:55 AM,30.0,27.0,88,30.09,10.0,North,5.8,-,N/A,,Clear,10,2012-11-01 13:55:00
8:55 AM,46.9,37.0,68,30.04,10.0,Calm,Calm,-,N/A,,Clear,0,2012-11-01 14:55:00
9:55 AM,59.0,28.0,31,29.99,10.0,SSE,10.4,-,N/A,,Clear,160,2012-11-01 15:55:00
10:55 AM,62.1,25.0,24,29.98,10.0,SSE,15.0,-,N/A,,Clear,150,2012-11-01 16:55:00
11:55 AM,66.0,24.1,20,29.95,10.0,South,9.2,-,N/A,,Clear,170,2012-11-01 17:55:00
12:55 PM,68.0,18.0,15,29.92,10.0,South,16.1,-,N/A,,Clear,170,2012-11-01 18:55:00
1:55 PM,70.0,18.0,14,29.87,10.0,South,11.5,-,N/A,,Clear,170,2012-11-01 19:55:00
2:55 PM,72.0,17.1,12,29.85,10.0,South,11.5,20.7,N/A,,Clear,170,2012-11-01 20:55:00
3:55 PM,69.1,19.9,15,29.86,10.0,SSE,15.0,-,N/A,,Clear,150,2012-11-01 21:55:00
4:55 PM,66.0,19.9,17,29.87,10.0,SSE,9.2,-,N/A,,Clear,160,2012-11-01 22:55:00
5:55 PM,53.1,21.0,29,29.93,10.0,SSE,4.6,-,N/A,,Clear,160,2012-11-01 23:55:00
6:55 PM,46.9,24.1,41,29.96,10.0,Calm,Calm,-,N/A,,Clear,0,2012-11-02 00:55:00
7:55 PM,42.1,28.0,58,29.97,10.0,NNW,5.8,-,N/A,,Clear,340,2012-11-02 01:55:00
8:55 PM,39.9,27.0,60,29.90,10.0,NW,5.8,-,N/A,,Clear,320,2012-11-02 02:55:00
9:55 PM,37.0,26.1,65,29.87,10.0,NW,3.5,-,N/A,,Clear,320,2012-11-02 03:55:00
10:55 PM,43.0,28.9,58,29.84,10.0,West,9.2,-,N/A,,Clear,280,2012-11-02 04:55:00
11:55 PM,44.1,30.0,58,29.81,10.0,WNW,11.5,-,N/A,,Clear,300,2012-11-02 05:55:00